Regional Weather Roundup
Issued by NWS

Home | Current Version | Previous Version | Text Only | Print | Product List | Glossary Off
Versions: 1 2 3 4 5 6 7 8 9 10 11 12 13 14 15 16 17 18 19 20 21 22 23 24 25 26 27 28 29 30 31 32 33 34 35 36 37 38 39 40 41 42 43 44 45 46 47 48 49 50

000
ASUS45 KBOU 261107
RWRCO

WEATHER ROUNDUP FOR COLORADO
NATIONAL WEATHER SERVICE DENVER/BOULDER CO
500 AM MDT SAT JUL 26 2014

NOTE: "FAIR" INDICATES FEW OR NO CLOUDS BELOW 12000 FEET WITH NO
SIGNIFICANT WEATHER AND/OR OBSTRUCTIONS TO VISIBILITY.

COZ001>005-013-030-031-261200-
...NORTHWEST COLORADO...

CITY           SKY/WX    TMP DP  RH WIND       PRES   REMARKS
CRAIG          CLOUDY    58  50  75 E7        30.21S
HAYDEN         CLOUDY    59  46  63 E12       30.24R
MEEKER         MOCLDY    59  52  77 CALM      30.22F
MOUNT WERNER   NOT AVBL
STEAMBOAT SPGS CLOUDY    52  48  85 NW3       30.27S
WALDEN         PTCLDY    46  41  81 SE9       30.35S
$$

COZ006>008-011-261200-
...WEST CENTRAL VALLEYS...

CITY           SKY/WX    TMP DP  RH WIND       PRES   REMARKS
GRAND JUNCTION PTCLDY    65  53  65 E7        30.12R
MONTROSE       PTCLDY    65  50  58 SE7       30.21S
EAGLE          PTCLDY    54  48  82 CALM      30.31F
RIFLE          MOCLDY    63  49  60 SE3       30.19R
DELTA          PTCLDY    65  51  60 CALM      30.17R
NUCLA          PTCLDY    64  46  52 E9        30.25R
$$

COZ017>023-064>068-261200-
...SOUTHWEST COLORADO...

CITY           SKY/WX    TMP DP  RH WIND       PRES   REMARKS
DURANGO        PTCLDY    60  45  57 CALM      30.25R
CORTEZ         CLEAR     58  44  60 E7        30.22R
PAGOSA SPRINGS PTCLDY    55  46  71 CALM      30.34R
TELLURIDE      PTCLDY    57  46  67 SE5       30.46S
WOLF CREEK PAS NOT AVBL
$$

COZ009-010-012-014-032>034-037-058>063-261200-
...CENTRAL COLORADO...

CITY           SKY/WX    TMP DP  RH WIND       PRES   REMARKS
ASPEN          PTCLDY    54  45  71 SW8       30.35F
BUENA VISTA    CLEAR     54  46  75 NW8       30.38R
COPPER MTN     CLEAR     54  37  54 W9G18     30.69R
BERTHOUD PASS  FAIR      45  32  61 W14G22    30.73R
COTTONWOOD PAS CLEAR     61  41  48 W13       30.50S
GUNNISON       PTCLDY    50  45  81 N3        30.42R
KREMMLING      PTCLDY    50  46  87 CALM      30.37S
LEADVILLE      CLEAR     42  41  96 CALM      30.51S
MONARCH PASS   CLEAR     50  39  66 W14       30.77S
SALIDA         CLEAR    N/A N/A N/A W7        30.43R
SUNLIGHT       PTCLDY    55  43  62 CALM      30.58S
WILKERSON PASS NOT AVBL
$$

COZ069>075-261200-
...SAN LUIS VALLEY/SANGRE DE CRISTO MOUNTAINS...

CITY           SKY/WX    TMP DP  RH WIND       PRES   REMARKS
ALAMOSA        CLEAR     49  47  93 CALM      30.34R
LA VETA PASS   CLEAR     54  43  66 SW7       30.51R
SAGUACHE       PTCLDY    57  46  67 NW18G25   30.37R
$$

COZ035-036-038>040-261200-
...NORTHERN COLORADO FRONT RANGE...

CITY           SKY/WX    TMP DP  RH WIND       PRES   REMARKS
DENVER INTL AP PTCLDY    68  49  50 SW12      30.09S
DMNS CITY PARK   N/A     67  49  53 S6G12     30.10R
AURORA         PTCLDY    63  50  62 S12       30.13R
FRONT RANGE AP NOT AVBL
ERIE MUNI ARPT CLEAR     61  48  62 S3        30.07R
BOULDER MUN AP CLEAR     72  46  40 CALM      30.07S
CENTENNIAL     PTCLDY    64  48  56 SW8       30.14R
BROOMFIELD     CLEAR     77  43  29 NW7       30.12R
FORT COLLINS   PTCLDY    59  52  77 N7        30.08R
LONGMONT       PTCLDY    64  52  66 E3        30.08R
$$

COZ041-046-047-076>085-087-088-261200-
...PIKES PEAK/PALMER DIVIDE AND SOUTHERN FOOTHILLS...

CITY           SKY/WX    TMP DP  RH WIND       PRES   REMARKS
COLO. SPRINGS  PTCLDY    63  48  58 N9        30.18R
A. F. ACADEMY  CLEAR     58  46  63 NE2       30.21R
ELLICOTT       CLEAR     58  50  75 CALM      30.16R
FALCON         CLEAR     62  46  56 NW7       30.23S
FORT CARSON    CLEAR     61  50  67 NW7       30.14S
LIMON          CLEAR     53  51  93 N5        30.10S
MONUMENT HILL  NOT AVBL
TRINIDAD       CLEAR     63  53  70 W15       30.15R
$$

COZ042>045-048>051-090-091-261200-
...NORTHEAST COLORADO...

CITY           SKY/WX    TMP DP  RH WIND       PRES   REMARKS
GREELEY ARPT   PTCLDY    55  46  71 N7        30.06R
AKRON          CLEAR     68  52  56 W10       30.03F
BURLINGTON     MOCLDY    68  60  75 W9        30.00R
WRAY             N/A     67  58  72 SW6       29.96R
STERLING       CLEAR     61  59  94 S3        30.00R
HOLYOKE        PTCLDY    63  61  94 W8        29.95S
FORT MORGAN    CLEAR     61  53  75 W5        30.04S
$$

COZ086-089-092>099-261200-
...SOUTHEAST COLORADO...

CITY           SKY/WX    TMP DP  RH WIND       PRES   REMARKS
PUEBLO         CLEAR     64  57  78 SW5       30.06R
LA JUNTA       CLEAR     69  59  70 W13       30.01F
LAMAR          PTCLDY    67  62  84 S7        29.98R
SPRINGFIELD      N/A     66  57  72 SW3       30.03R
$$



USA.gov is the U.S. government's official web portal to all federal, state and local government web resources and services.